sat.trackr.live / text

‹ back to catalog

STARLINK-33755

NORAD 63579 · 2025-076L

PAYLOAD ACTIVE UNKNOWN

§ Identity

Operator
Country
US
Launch date
2025-04-14
Launch site
AFETR
Launch vehicle
Mass (kg)
RCS (m²)

Purposes: comms

External: N2YO · Heavens-Above · Gunter

§ Orbital elements

Epoch: 2026-05-25T00:18:12.642912Z

Period
94.27 min
Inclination
43.0022°
Eccentricity
0.0001828
Mean motion
15.27582709 rev/d
Perigee alt
481.8 km
Apogee alt
484.3 km
Semi-major
6,861.2 km
B*
5.5027e-4
RAAN
250.5283°
Arg perigee
269.8442°
Mean anomaly
90.2200°
Rev number
6,350

§ Raw data

STARLINK-337551 63579U 25076L   26145.01264633  .00014912  00000+0  55027-3 0  99912 63579  43.0022 250.5283 0001828 269.8442  90.2200 15.27582709 63505

JSON: /api/v1/satellites/63579 · /tle

For live sub-satellite position, see the globe view (requires WebGL).

§ Visibility from observer

Set your observer location to see the next 7 days of passes ≥ 10°. The values pass through the URL so the page stays shareable.

No JS? Fill the form by hand. The geolocation button needs JavaScript.